Time,TemperatureF,DewpointF,PressureIn,WindDirection,WindDirectionDegrees,WindSpeedMPH,WindSpeedGustMPH,Humidity,HourlyPrecipIn,Conditions,Clouds,dailyrainin,SoftwareType,DateUTC
2013-08-23 00:02:00,78.3,75.7,30.00,SSW,194,0.0,0.0,92,0.00,,,0.00,meteohub,2013-08-23 05:02:00,
2013-08-23 00:07:00,78.3,75.7,29.99,SSW,194,0.0,0.0,92,0.00,,,0.00,meteohub,2013-08-23 05:07:00,
2013-08-23 00:12:00,78.3,75.7,29.99,SSW,194,0.0,0.0,92,0.00,,,0.00,meteohub,2013-08-23 05:12:00,
2013-08-23 00:17:00,78.3,75.7,30.00,SSW,194,0.0,0.0,92,0.00,,,0.00,meteohub,2013-08-23 05:17:00,
2013-08-23 00:22:00,78.3,75.7,30.00,SSW,194,0.0,0.0,92,0.00,,,0.00,meteohub,2013-08-23 05:22:00,
2013-08-23 00:27:00,78.1,75.6,30.00,SSW,194,0.0,0.0,92,0.00,,,0.00,meteohub,2013-08-23 05:27:00,
2013-08-23 00:32:00,78.1,75.6,30.00,SSW,194,0.0,0.0,92,0.00,,,0.00,meteohub,2013-08-23 05:32:00,
2013-08-23 00:37:00,78.1,75.6,29.99,SSW,194,0.0,2.0,92,0.00,,,0.00,meteohub,2013-08-23 05:37:00,
2013-08-23 00:42:00,78.1,75.6,29.99,SSW,194,0.0,2.0,92,0.00,,,0.00,meteohub,2013-08-23 05:42:00,
2013-08-23 00:47:00,78.1,75.6,29.99,SSW,194,0.0,2.0,92,0.00,,,0.00,meteohub,2013-08-23 05:47:00,
2013-08-23 00:52:00,78.3,75.7,29.99,SSW,194,0.0,0.0,92,0.00,,,0.00,meteohub,2013-08-23 05:52:00,
2013-08-23 00:57:00,78.4,75.9,29.99,SSW,194,0.0,0.0,92,0.00,,,0.00,meteohub,2013-08-23 05:57:00,
2013-08-23 01:02:00,78.6,75.7,29.99,SSW,194,0.0,0.0,91,0.00,,,0.00,meteohub,2013-08-23 06:02:00,
2013-08-23 01:07:00,78.6,75.7,29.99,SSW,194,0.0,1.0,91,0.00,,,0.00,meteohub,2013-08-23 06:07:00,
2013-08-23 01:12:00,78.6,75.7,29.99,SSW,194,0.0,1.0,91,0.00,,,0.00,meteohub,2013-08-23 06:12:00,
2013-08-23 01:17:00,78.6,75.7,29.99,SSW,194,0.0,1.0,91,0.00,,,0.00,meteohub,2013-08-23 06:17:00,
2013-08-23 01:22:00,78.6,75.7,29.99,SSW,194,0.0,1.0,91,0.00,,,0.00,meteohub,2013-08-23 06:22:00,
2013-08-23 01:27:00,78.4,75.6,29.99,SSW,194,1.0,1.0,91,0.00,,,0.00,meteohub,2013-08-23 06:27:00,
2013-08-23 01:32:00,78.1,75.2,29.99,SSW,194,0.0,1.0,91,0.00,,,0.00,meteohub,2013-08-23 06:32:00,
2013-08-23 01:37:00,77.7,75.2,29.99,SSW,194,0.0,1.0,92,0.00,,,0.00,meteohub,2013-08-23 06:37:00,
2013-08-23 01:42:00,77.5,75.0,29.99,SSW,194,0.0,1.0,92,0.00,,,0.00,meteohub,2013-08-23 06:42:00,
2013-08-23 01:47:00,77.5,75.0,29.99,SSW,194,0.0,0.0,92,0.00,,,0.00,meteohub,2013-08-23 06:47:00,
2013-08-23 01:52:00,77.4,75.2,29.99,SSW,194,0.0,0.0,93,0.00,,,0.00,meteohub,2013-08-23 06:52:00,
2013-08-23 01:57:00,77.4,74.8,29.99,SSW,194,0.0,0.0,92,0.00,,,0.00,meteohub,2013-08-23 06:57:00,
2013-08-23 02:02:00,77.2,74.7,29.98,SSW,194,0.0,0.0,92,0.00,,,0.00,meteohub,2013-08-23 07:02:00,
2013-08-23 02:07:00,76.6,74.1,29.98,SSW,194,0.0,0.0,92,0.00,,,0.00,meteohub,2013-08-23 07:07:00,
2013-08-23 02:12:00,76.6,74.5,29.98,SSW,194,0.0,0.0,93,0.00,,,0.00,meteohub,2013-08-23 07:12:00,
2013-08-23 02:17:00,76.5,74.3,29.98,SSW,194,0.0,0.0,93,0.00,,,0.00,meteohub,2013-08-23 07:17:00,
2013-08-23 02:22:00,76.5,74.3,29.97,SSW,194,0.0,0.0,93,0.00,,,0.00,meteohub,2013-08-23 07:22:00,
2013-08-23 02:27:00,76.5,74.3,29.97,SSW,194,0.0,0.0,93,0.00,,,0.00,meteohub,2013-08-23 07:27:00,
2013-08-23 02:32:00,76.5,74.7,29.97,SSW,194,0.0,0.0,94,0.00,,,0.00,meteohub,2013-08-23 07:32:00,
2013-08-23 02:37:00,76.5,74.7,29.96,SSW,194,0.0,0.0,94,0.00,,,0.00,meteohub,2013-08-23 07:37:00,
2013-08-23 02:42:00,76.3,74.1,29.96,SSW,194,0.0,0.0,93,0.00,,,0.00,meteohub,2013-08-23 07:42:00,
2013-08-23 02:47:00,76.3,74.1,29.96,SSW,194,0.0,0.0,93,0.00,,,0.00,meteohub,2013-08-23 07:47:00,
2013-08-23 02:52:00,76.3,74.1,29.96,SSW,194,0.0,0.0,93,0.00,,,0.00,meteohub,2013-08-23 07:52:00,
2013-08-23 02:57:00,76.1,73.9,29.96,SSW,194,0.0,0.0,93,0.00,,,0.00,meteohub,2013-08-23 07:57:00,
2013-08-23 03:02:00,76.1,74.3,29.96,SSW,194,0.0,0.0,94,0.00,,,0.00,meteohub,2013-08-23 08:02:00,
2013-08-23 03:07:00,76.1,74.3,29.96,SSW,194,0.0,0.0,94,0.00,,,0.00,meteohub,2013-08-23 08:07:00,
2013-08-23 03:12:00,76.1,74.3,29.96,SSW,194,0.0,0.0,94,0.00,,,0.00,meteohub,2013-08-23 08:12:00,
2013-08-23 03:17:00,76.1,74.3,29.96,SSW,194,0.0,0.0,94,0.00,,,0.00,meteohub,2013-08-23 08:17:00,
2013-08-23 03:22:00,76.1,74.3,29.96,SSW,194,0.0,0.0,94,0.00,,,0.00,meteohub,2013-08-23 08:22:00,
2013-08-23 03:27:00,75.9,74.1,29.96,SSW,194,0.0,0.0,94,0.00,,,0.00,meteohub,2013-08-23 08:27:00,
2013-08-23 03:32:00,75.9,74.1,29.96,SSW,194,0.0,0.0,94,0.00,,,0.00,meteohub,2013-08-23 08:32:00,
2013-08-23 03:37:00,75.9,74.3,29.96,SSW,194,0.0,0.0,95,0.00,,,0.00,meteohub,2013-08-23 08:37:00,
2013-08-23 03:42:00,76.1,74.5,29.96,SSW,194,0.0,0.0,95,0.00,,,0.00,meteohub,2013-08-23 08:42:00,
2013-08-23 03:47:00,76.1,74.5,29.96,SSW,194,0.0,0.0,95,0.00,,,0.00,meteohub,2013-08-23 08:47:00,
2013-08-23 03:52:00,75.9,74.1,29.96,SSW,194,0.0,0.0,94,0.00,,,0.00,meteohub,2013-08-23 08:52:00,
2013-08-23 03:57:00,75.9,74.1,29.96,SSW,194,0.0,0.0,94,0.00,,,0.00,meteohub,2013-08-23 08:57:00,
2013-08-23 04:02:00,75.7,73.9,29.96,SSW,194,0.0,0.0,94,0.00,,,0.00,meteohub,2013-08-23 09:02:00,
2013-08-23 04:07:00,75.7,73.9,29.96,SSW,194,0.0,0.0,94,0.00,,,0.00,meteohub,2013-08-23 09:07:00,
2013-08-23 04:12:00,75.7,74.1,29.96,SSW,194,0.0,0.0,95,0.00,,,0.00,meteohub,2013-08-23 09:12:00,
2013-08-23 04:17:00,75.9,74.3,29.96,SSW,194,0.0,0.0,95,0.00,,,0.00,meteohub,2013-08-23 09:17:00,
2013-08-23 04:22:00,75.9,74.3,29.96,SSW,194,0.0,2.0,95,0.00,,,0.00,meteohub,2013-08-23 09:22:00,
2013-08-23 04:28:00,76.1,74.5,29.96,SSW,194,0.0,2.0,95,0.00,,,0.00,meteohub,2013-08-23 09:28:00,
2013-08-23 04:33:00,76.1,74.5,29.96,SSW,194,0.0,2.0,95,0.00,,,0.00,meteohub,2013-08-23 09:33:00,
2013-08-23 04:38:00,76.1,74.5,29.96,SSW,194,0.0,0.0,95,0.00,,,0.00,meteohub,2013-08-23 09:38:00,
2013-08-23 04:43:00,75.9,74.3,29.96,SSW,194,0.0,2.0,95,0.00,,,0.00,meteohub,2013-08-23 09:43:00,
2013-08-23 04:48:00,75.9,74.3,29.96,SSW,194,1.0,2.0,95,0.00,,,0.00,meteohub,2013-08-23 09:48:00,
2013-08-23 04:53:00,75.9,74.3,29.96,SSW,194,1.0,2.0,95,0.00,,,0.00,meteohub,2013-08-23 09:53:00,
2013-08-23 04:58:00,75.9,74.3,29.96,SSW,194,1.0,3.0,95,0.00,,,0.00,meteohub,2013-08-23 09:58:00,
2013-08-23 05:03:00,75.9,74.3,29.96,SSW,194,1.0,3.0,95,0.00,,,0.00,meteohub,2013-08-23 10:03:00,
2013-08-23 05:08:00,75.9,74.3,29.96,SSW,194,0.0,3.0,95,0.00,,,0.00,meteohub,2013-08-23 10:08:00,
2013-08-23 05:13:00,75.9,74.3,29.96,SSW,194,0.0,3.0,95,0.00,,,0.00,meteohub,2013-08-23 10:13:00,
2013-08-23 05:18:00,75.9,74.3,29.96,SSW,194,0.0,2.0,95,0.00,,,0.00,meteohub,2013-08-23 10:18:00,
2013-08-23 05:23:00,75.9,74.3,29.96,SSW,194,0.0,2.0,95,0.00,,,0.00,meteohub,2013-08-23 10:23:00,
2013-08-23 05:28:00,75.9,74.7,29.96,SSW,194,0.0,2.0,96,0.00,,,0.00,meteohub,2013-08-23 10:28:00,
2013-08-23 05:33:00,75.9,74.7,29.96,SSW,194,0.0,0.0,96,0.00,,,0.00,meteohub,2013-08-23 10:33:00,
2013-08-23 05:38:00,75.9,74.7,29.96,SSW,194,0.0,0.0,96,0.00,,,0.00,meteohub,2013-08-23 10:38:00,
2013-08-23 05:43:00,75.9,74.7,29.96,SSW,194,0.0,0.0,96,0.00,,,0.00,meteohub,2013-08-23 10:43:00,
2013-08-23 05:48:00,75.9,74.7,29.96,SSW,194,0.0,1.0,96,0.00,,,0.00,meteohub,2013-08-23 10:48:00,
2013-08-23 05:53:00,75.9,74.7,29.96,SSW,194,0.0,1.0,96,0.00,,,0.00,meteohub,2013-08-23 10:53:00,
2013-08-23 05:58:00,75.7,74.5,29.96,SSW,194,0.0,1.0,96,0.00,,,0.00,meteohub,2013-08-23 10:58:00,
2013-08-23 06:03:00,75.7,74.5,29.96,SSW,194,0.0,1.0,96,0.00,,,0.00,meteohub,2013-08-23 11:03:00,
2013-08-23 06:08:00,75.7,74.5,29.96,SSW,194,0.0,1.0,96,0.00,,,0.00,meteohub,2013-08-23 11:08:00,
2013-08-23 06:13:00,75.7,74.5,29.96,SSW,194,0.0,0.0,96,0.00,,,0.00,meteohub,2013-08-23 11:13:00,
2013-08-23 06:18:00,75.7,74.5,29.96,SSW,194,0.0,0.0,96,0.00,,,0.00,meteohub,2013-08-23 11:18:00,
2013-08-23 06:23:00,75.7,74.5,29.96,SSW,194,0.0,0.0,96,0.00,,,0.00,meteohub,2013-08-23 11:23:00,
2013-08-23 06:28:00,75.7,74.5,29.96,SSW,194,0.0,0.0,96,0.00,,,0.00,meteohub,2013-08-23 11:28:00,
2013-08-23 06:33:00,75.7,74.5,29.96,SSW,194,0.0,0.0,96,0.00,,,0.00,meteohub,2013-08-23 11:33:00,
2013-08-23 06:38:00,75.7,74.5,29.97,SSW,194,0.0,2.0,96,0.00,,,0.00,meteohub,2013-08-23 11:38:00,
2013-08-23 06:43:00,75.7,74.5,29.97,SSW,194,0.0,2.0,96,0.00,,,0.00,meteohub,2013-08-23 11:43:00,
2013-08-23 06:49:00,75.7,74.5,29.97,SSW,194,0.0,2.0,96,0.00,,,0.00,meteohub,2013-08-23 11:49:00,
2013-08-23 06:54:00,75.7,74.5,29.97,SSW,194,0.0,1.0,96,0.00,,,0.00,meteohub,2013-08-23 11:54:00,
2013-08-23 06:59:00,75.7,74.5,29.98,SSW,194,0.0,1.0,96,0.00,,,0.00,meteohub,2013-08-23 11:59:00,
2013-08-23 07:04:00,75.6,74.3,29.98,SSW,194,0.0,1.0,96,0.00,,,0.00,meteohub,2013-08-23 12:04:00,
2013-08-23 07:09:00,75.7,74.5,29.98,SSW,194,0.0,0.0,96,0.00,,,0.00,meteohub,2013-08-23 12:09:00,
2013-08-23 07:14:00,75.9,74.7,29.98,SSW,194,0.0,0.0,96,0.00,,,0.00,meteohub,2013-08-23 12:14:00,
2013-08-23 07:19:00,76.3,75.0,29.98,SSW,194,0.0,1.0,96,0.00,,,0.00,meteohub,2013-08-23 12:19:00,
2013-08-23 07:24:00,76.5,75.2,29.98,SSW,194,3.0,3.0,96,0.00,,,0.00,meteohub,2013-08-23 12:24:00,
2013-08-23 07:29:00,76.6,75.4,29.98,SSW,194,0.0,3.0,96,0.00,,,0.00,meteohub,2013-08-23 12:29:00,
2013-08-23 07:34:00,76.6,75.4,29.99,SSW,194,0.0,4.0,96,0.00,,,0.00,meteohub,2013-08-23 12:34:00,
2013-08-23 07:39:00,76.8,75.2,29.99,SSW,194,0.0,4.0,95,0.00,,,0.00,meteohub,2013-08-23 12:39:00,
2013-08-23 07:44:00,77.0,75.4,29.99,SSW,194,0.0,2.0,95,0.00,,,0.00,meteohub,2013-08-23 12:44:00,
2013-08-23 07:49:00,77.2,75.6,29.99,WNW,300,4.0,4.0,95,0.00,,,0.00,meteohub,2013-08-23 12:49:00,
2013-08-23 07:54:00,77.5,75.9,29.99,WNW,300,0.0,4.0,95,0.00,,,0.00,meteohub,2013-08-23 12:54:00,
2013-08-23 07:59:00,77.9,76.3,29.99,WNW,300,0.0,4.0,95,0.00,,,0.00,meteohub,2013-08-23 12:59:00,
2013-08-23 08:04:00,78.4,76.6,29.99,NNE,13,0.0,4.0,94,0.00,,,0.00,meteohub,2013-08-23 13:04:00,
2013-08-23 08:09:00,79.0,76.8,29.99,NNE,13,2.0,4.0,93,0.00,,,0.00,meteohub,2013-08-23 13:09:00,
2013-08-23 08:14:00,79.3,77.2,29.99,NNW,335,2.0,4.0,93,0.00,,,0.00,meteohub,2013-08-23 13:14:00,
2013-08-23 08:19:00,79.5,77.0,29.99,NNW,335,2.0,4.0,92,0.00,,,0.00,meteohub,2013-08-23 13:19:00,
2013-08-23 08:24:00,80.1,77.2,29.99,NNW,335,0.0,5.0,91,0.00,,,0.00,meteohub,2013-08-23 13:24:00,
2013-08-23 08:29:00,80.4,77.2,29.99,NNW,335,0.0,5.0,90,0.00,,,0.00,meteohub,2013-08-23 13:29:00,
2013-08-23 08:34:00,81.0,77.7,29.99,NNW,335,0.0,5.0,90,0.00,,,0.00,meteohub,2013-08-23 13:34:00,
2013-08-23 08:39:00,81.3,77.7,29.99,NNW,335,3.0,5.0,89,0.00,,,0.00,meteohub,2013-08-23 13:39:00,
2013-08-23 08:45:00,81.3,77.4,29.99,NNW,335,0.0,4.0,88,0.00,,,0.00,meteohub,2013-08-23 13:45:00,
2013-08-23 08:50:00,81.9,78.3,29.99,NNW,335,0.0,4.0,89,0.00,,,0.00,meteohub,2013-08-23 13:50:00,
2013-08-23 08:55:00,82.6,78.3,29.99,NNW,335,0.0,3.0,87,0.00,,,0.00,meteohub,2013-08-23 13:55:00,
2013-08-23 09:00:00,82.8,77.4,29.99,NNE,24,2.0,3.0,84,0.00,,,0.00,meteohub,2013-08-23 14:00:00,
2013-08-23 09:05:00,82.9,77.9,29.99,ENE,76,4.0,6.0,85,0.00,,,0.00,meteohub,2013-08-23 14:05:00,
2013-08-23 09:10:00,82.9,77.2,29.99,ENE,76,0.0,6.0,83,0.00,,,0.00,meteohub,2013-08-23 14:10:00,
2013-08-23 09:15:00,83.3,77.2,29.99,NW,323,2.0,7.0,82,0.00,,,0.00,meteohub,2013-08-23 14:15:00,
2013-08-23 09:20:00,83.7,76.8,29.99,NNW,342,1.0,7.0,80,0.00,,,0.00,meteohub,2013-08-23 14:20:00,
2013-08-23 09:25:00,83.7,76.5,29.99,NE,47,0.0,7.0,79,0.00,,,0.00,meteohub,2013-08-23 14:25:00,
2013-08-23 09:30:00,84.2,77.0,29.99,NE,50,2.0,7.0,79,0.00,,,0.00,meteohub,2013-08-23 14:30:00,
2013-08-23 09:35:00,84.4,76.8,29.99,NE,38,4.0,7.0,78,0.00,,,0.00,meteohub,2013-08-23 14:35:00,
2013-08-23 09:40:00,84.6,76.5,29.99,NE,42,2.0,7.0,77,0.00,,,0.00,meteohub,2013-08-23 14:40:00,
2013-08-23 09:45:00,84.9,76.5,29.99,NE,47,6.0,7.0,76,0.00,,,0.00,meteohub,2013-08-23 14:45:00,
2013-08-23 09:50:00,85.1,76.3,29.99,ENE,63,8.0,8.0,75,0.00,,,0.00,meteohub,2013-08-23 14:50:00,
2013-08-23 09:55:00,85.1,76.6,29.99,East,81,2.0,8.0,76,0.00,,,0.00,meteohub,2013-08-23 14:55:00,
2013-08-23 10:00:00,85.3,76.5,29.99,North,355,7.0,8.0,75,0.00,,,0.00,meteohub,2013-08-23 15:00:00,
2013-08-23 10:05:00,85.3,76.8,29.99,NE,41,4.0,8.0,76,0.00,,,0.00,meteohub,2013-08-23 15:05:00,
2013-08-23 10:10:00,85.3,76.8,29.99,NNE,30,0.0,8.0,76,0.00,,,0.00,meteohub,2013-08-23 15:10:00,
2013-08-23 10:15:00,85.6,76.5,29.99,ENE,65,1.0,8.0,74,0.00,,,0.00,meteohub,2013-08-23 15:15:00,
2013-08-23 10:20:00,86.2,77.0,29.99,NNW,339,3.0,8.0,74,0.00,,,0.00,meteohub,2013-08-23 15:20:00,
2013-08-23 10:25:00,86.2,76.5,29.99,ENE,71,0.0,8.0,73,0.00,,,0.00,meteohub,2013-08-23 15:25:00,
2013-08-23 10:30:00,86.0,75.9,29.99,NE,44,5.0,9.0,72,0.00,,,0.00,meteohub,2013-08-23 15:30:00,
2013-08-23 10:35:00,86.0,76.3,29.99,NE,46,7.0,9.0,73,0.00,,,0.00,meteohub,2013-08-23 15:35:00,
2013-08-23 10:40:00,86.2,77.0,29.99,NE,40,3.0,9.0,74,0.00,,,0.00,meteohub,2013-08-23 15:40:00,
2013-08-23 10:45:00,86.7,76.6,29.99,NNE,21,6.0,9.0,72,0.00,,,0.00,meteohub,2013-08-23 15:45:00,
2013-08-23 10:50:00,87.1,77.0,29.99,NE,53,3.0,9.0,72,0.00,,,0.00,meteohub,2013-08-23 15:50:00,
2013-08-23 10:55:00,87.3,76.6,29.99,ENE,75,1.0,8.0,71,0.00,,,0.00,meteohub,2013-08-23 15:55:00,
2013-08-23 11:00:00,87.1,76.5,29.99,NE,43,1.0,9.0,71,0.00,,,0.00,meteohub,2013-08-23 16:00:00,
2013-08-23 11:05:00,87.3,77.2,29.99,ENE,77,5.0,9.0,72,0.00,,,0.00,meteohub,2013-08-23 16:05:00,
2013-08-23 11:11:00,87.1,76.5,29.99,ENE,64,8.0,9.0,71,0.00,,,0.00,meteohub,2013-08-23 16:11:00,
2013-08-23 11:16:00,87.1,76.5,29.99,ENE,57,3.0,10.0,71,0.00,,,0.00,meteohub,2013-08-23 16:16:00,
2013-08-23 11:21:00,87.3,76.6,29.99,NNW,347,4.0,10.0,71,0.00,,,0.00,meteohub,2013-08-23 16:21:00,
2013-08-23 11:26:00,87.3,77.2,29.99,North,10,1.0,9.0,72,0.00,,,0.00,meteohub,2013-08-23 16:26:00,
2013-08-23 11:31:00,87.4,76.8,29.98,NNW,345,5.0,9.0,71,0.00,,,0.00,meteohub,2013-08-23 16:31:00,
2013-08-23 11:36:00,87.6,76.6,29.98,NE,40,1.0,9.0,70,0.00,,,0.00,meteohub,2013-08-23 16:36:00,
2013-08-23 11:41:00,87.4,75.9,29.98,East,91,2.0,11.0,69,0.00,,,0.00,meteohub,2013-08-23 16:41:00,
2013-08-23 11:46:00,87.3,76.6,29.98,ENE,72,4.0,11.0,71,0.00,,,0.00,meteohub,2013-08-23 16:46:00,
2013-08-23 11:51:00,87.6,76.6,29.98,North,11,5.0,11.0,70,0.00,,,0.00,meteohub,2013-08-23 16:51:00,
2013-08-23 11:56:00,88.2,76.6,29.97,NE,50,3.0,10.0,69,0.00,,,0.00,meteohub,2013-08-23 16:56:00,
2013-08-23 12:01:00,88.3,76.5,29.97,North,355,7.0,10.0,68,0.00,,,0.00,meteohub,2013-08-23 17:01:00,
2013-08-23 12:06:00,88.2,76.3,29.97,NNE,15,5.0,10.0,68,0.00,,,0.00,meteohub,2013-08-23 17:06:00,
2013-08-23 12:11:00,88.0,76.1,29.96,NE,42,3.0,10.0,68,0.00,,,0.00,meteohub,2013-08-23 17:11:00,
2013-08-23 12:16:00,88.0,75.6,29.96,ENE,74,7.0,11.0,67,0.00,,,0.00,meteohub,2013-08-23 17:16:00,
2013-08-23 12:21:00,88.5,76.1,29.96,NE,44,8.0,11.0,67,0.00,,,0.00,meteohub,2013-08-23 17:21:00,
2013-08-23 12:26:00,88.9,76.1,29.96,North,355,6.0,11.0,66,0.00,,,0.00,meteohub,2013-08-23 17:26:00,
2013-08-23 12:31:00,89.1,75.7,29.96,East,90,3.0,9.0,65,0.00,,,0.00,meteohub,2013-08-23 17:31:00,
2013-08-23 12:36:00,88.3,75.0,29.96,ENE,76,4.0,10.0,65,0.00,,,0.00,meteohub,2013-08-23 17:36:00,
2013-08-23 12:41:00,87.8,75.4,29.96,ENE,57,4.0,11.0,67,0.00,,,0.00,meteohub,2013-08-23 17:41:00,
2013-08-23 12:46:00,88.0,75.6,29.96,NE,38,0.0,11.0,67,0.00,,,0.00,meteohub,2013-08-23 17:46:00,
2013-08-23 12:51:00,88.5,75.7,29.96,ENE,65,4.0,10.0,66,0.00,,,0.00,meteohub,2013-08-23 17:51:00,
2013-08-23 12:56:00,88.3,75.6,29.95,NE,53,6.0,10.0,66,0.00,,,0.00,meteohub,2013-08-23 17:56:00,
2013-08-23 13:01:00,88.3,74.7,29.95,NNW,348,8.0,13.0,64,0.00,,,0.00,meteohub,2013-08-23 18:01:00,
2013-08-23 13:06:00,88.5,74.8,29.95,NNE,26,3.0,13.0,64,0.00,,,0.00,meteohub,2013-08-23 18:06:00,
2013-08-23 13:11:00,89.4,76.1,29.95,NNE,19,6.0,13.0,65,0.00,,,0.00,meteohub,2013-08-23 18:11:00,
2013-08-23 13:16:00,89.2,75.4,29.95,North,5,4.0,13.0,64,0.00,,,0.00,meteohub,2013-08-23 18:16:00,
2013-08-23 13:21:00,89.8,75.9,29.94,NNE,28,5.0,12.0,64,0.00,,,0.00,meteohub,2013-08-23 18:21:00,
2013-08-23 13:27:00,89.8,75.9,29.94,ENE,74,7.0,12.0,64,0.00,,,0.00,meteohub,2013-08-23 18:27:00,
2013-08-23 13:32:00,90.0,76.1,29.94,NNE,22,2.0,12.0,64,0.00,,,0.00,meteohub,2013-08-23 18:32:00,
2013-08-23 13:37:00,90.1,75.4,29.94,NE,49,4.0,13.0,62,0.00,,,0.00,meteohub,2013-08-23 18:37:00,
2013-08-23 13:42:00,90.0,76.1,29.94,East,88,9.0,13.0,64,0.00,,,0.00,meteohub,2013-08-23 18:42:00,
2013-08-23 13:47:00,90.0,75.2,29.94,NE,42,3.0,12.0,62,0.00,,,0.00,meteohub,2013-08-23 18:47:00,
2013-08-23 13:52:00,90.1,74.8,29.94,East,83,3.0,11.0,61,0.00,,,0.00,meteohub,2013-08-23 18:52:00,
2013-08-23 13:57:00,90.1,75.4,29.94,ENE,66,15.0,15.0,62,0.00,,,0.00,meteohub,2013-08-23 18:57:00,
2013-08-23 14:02:00,90.0,75.7,29.94,East,80,7.0,15.0,63,0.00,,,0.00,meteohub,2013-08-23 19:02:00,
2013-08-23 14:07:00,90.0,76.1,29.94,NE,36,6.0,15.0,64,0.00,,,0.00,meteohub,2013-08-23 19:07:00,
2013-08-23 14:12:00,90.0,75.7,29.94,NE,49,4.0,15.0,63,0.00,,,0.00,meteohub,2013-08-23 19:12:00,
2013-08-23 14:17:00,90.3,75.9,29.94,ENE,78,10.0,15.0,63,0.00,,,0.00,meteohub,2013-08-23 19:17:00,
2013-08-23 14:22:00,90.9,75.0,29.93,NE,55,8.0,15.0,60,0.00,,,0.00,meteohub,2013-08-23 19:22:00,
2013-08-23 14:27:00,90.7,75.9,29.93,ENE,78,3.0,14.0,62,0.00,,,0.00,meteohub,2013-08-23 19:27:00,
2013-08-23 14:32:00,91.0,76.3,29.93,NNE,24,1.0,14.0,62,0.00,,,0.00,meteohub,2013-08-23 19:32:00,
2013-08-23 14:37:00,90.3,75.6,29.93,East,84,8.0,10.0,62,0.00,,,0.00,meteohub,2013-08-23 19:37:00,
2013-08-23 14:42:00,89.4,75.6,29.93,ENE,67,5.0,16.0,64,0.00,,,0.00,meteohub,2013-08-23 19:42:00,
2013-08-23 14:47:00,88.9,75.6,29.93,ENE,69,8.0,16.0,65,0.00,,,0.00,meteohub,2013-08-23 19:47:00,
2013-08-23 14:52:00,89.4,76.6,29.92,ESE,109,2.0,16.0,66,0.00,,,0.00,meteohub,2013-08-23 19:52:00,
2013-08-23 14:57:00,89.8,74.5,29.92,East,91,8.0,11.0,61,0.00,,,0.00,meteohub,2013-08-23 19:57:00,
2013-08-23 15:02:00,90.1,75.4,29.92,ENE,74,4.0,13.0,62,0.00,,,0.00,meteohub,2013-08-23 20:02:00,
2013-08-23 15:07:00,90.3,75.0,29.91,NE,49,8.0,13.0,61,0.00,,,0.00,meteohub,2013-08-23 20:07:00,
2013-08-23 15:12:00,90.7,75.4,29.92,ENE,67,11.0,13.0,61,0.00,,,0.00,meteohub,2013-08-23 20:12:00,
2013-08-23 15:17:00,90.7,74.8,29.92,NE,39,5.0,13.0,60,0.00,,,0.00,meteohub,2013-08-23 20:17:00,
2013-08-23 15:22:00,90.7,75.4,29.92,ENE,69,4.0,13.0,61,0.00,,,0.00,meteohub,2013-08-23 20:22:00,
2013-08-23 15:27:00,90.1,74.8,29.92,NE,53,5.0,12.0,61,0.00,,,0.00,meteohub,2013-08-23 20:27:00,
2013-08-23 15:32:00,90.0,74.7,29.92,ENE,66,4.0,12.0,61,0.00,,,0.00,meteohub,2013-08-23 20:32:00,
2013-08-23 15:37:00,90.3,74.1,29.92,East,96,7.0,12.0,59,0.00,,,0.00,meteohub,2013-08-23 20:37:00,
2013-08-23 15:42:00,90.7,74.8,29.92,East,96,3.0,11.0,60,0.00,,,0.00,meteohub,2013-08-23 20:42:00,
2013-08-23 15:47:00,90.9,75.6,29.92,ENE,65,9.0,11.0,61,0.00,,,0.00,meteohub,2013-08-23 20:47:00,
2013-08-23 15:52:00,91.0,75.2,29.92,NE,38,2.0,13.0,60,0.00,,,0.00,meteohub,2013-08-23 20:52:00,
2013-08-23 15:57:00,90.7,74.8,29.92,NNE,30,6.0,13.0,60,0.00,,,0.00,meteohub,2013-08-23 20:57:00,
2013-08-23 16:02:00,89.8,74.5,29.92,East,84,5.0,13.0,61,0.00,,,0.00,meteohub,2013-08-23 21:02:00,
2013-08-23 16:07:00,89.6,74.3,29.91,East,81,2.0,12.0,61,0.00,,,0.00,meteohub,2013-08-23 21:07:00,
2013-08-23 16:12:00,90.1,74.8,29.91,ENE,78,4.0,12.0,61,0.00,,,0.00,meteohub,2013-08-23 21:12:00,
2013-08-23 16:17:00,90.9,75.0,29.91,East,82,2.0,10.0,60,0.00,,,0.00,meteohub,2013-08-23 21:17:00,
2013-08-23 16:22:00,91.4,76.1,29.91,ESE,121,1.0,10.0,61,0.00,,,0.00,meteohub,2013-08-23 21:22:00,
2013-08-23 16:27:00,91.0,75.7,29.91,East,80,3.0,11.0,61,0.00,,,0.00,meteohub,2013-08-23 21:27:00,
2013-08-23 16:32:00,90.9,75.0,29.91,ENE,68,4.0,11.0,60,0.00,,,0.00,meteohub,2013-08-23 21:32:00,
2013-08-23 16:37:00,90.3,75.6,29.91,East,83,7.0,13.0,62,0.00,,,0.00,meteohub,2013-08-23 21:37:00,
2013-08-23 16:42:00,90.1,75.4,29.91,East,87,6.0,13.0,62,0.00,,,0.00,meteohub,2013-08-23 21:42:00,
2013-08-23 16:47:00,89.6,75.4,29.91,SE,125,0.0,13.0,63,0.00,,,0.00,meteohub,2013-08-23 21:47:00,
2013-08-23 16:52:00,89.2,75.4,29.91,ESE,103,5.0,9.0,64,0.00,,,0.00,meteohub,2013-08-23 21:52:00,
2013-08-23 16:57:00,87.6,76.1,29.91,ESE,109,8.0,14.0,69,0.00,,,0.00,meteohub,2013-08-23 21:57:00,
2013-08-23 17:02:00,85.6,75.6,29.91,ESE,122,14.0,18.0,72,0.00,,,0.00,meteohub,2013-08-23 22:02:00,
2013-08-23 17:07:00,85.1,75.9,29.91,ESE,122,10.0,18.0,74,0.00,,,0.00,meteohub,2013-08-23 22:07:00,
2013-08-23 17:12:00,85.5,76.6,29.91,East,82,11.0,16.0,75,0.00,,,0.00,meteohub,2013-08-23 22:12:00,
2013-08-23 17:17:00,86.0,77.2,29.91,ESE,115,5.0,14.0,75,0.00,,,0.00,meteohub,2013-08-23 22:17:00,
2013-08-23 17:22:00,86.5,76.8,29.92,SE,130,7.0,14.0,73,0.00,,,0.00,meteohub,2013-08-23 22:22:00,
2013-08-23 17:27:00,86.5,76.5,29.91,ESE,103,8.0,13.0,72,0.00,,,0.00,meteohub,2013-08-23 22:27:00,
2013-08-23 17:32:00,86.5,76.5,29.91,East,86,8.0,13.0,72,0.00,,,0.00,meteohub,2013-08-23 22:32:00,
2013-08-23 17:37:00,86.9,76.3,29.91,East,82,8.0,13.0,71,0.00,,,0.00,meteohub,2013-08-23 22:37:00,
2013-08-23 17:42:00,87.1,76.1,29.91,East,87,9.0,14.0,70,0.00,,,0.00,meteohub,2013-08-23 22:42:00,
2013-08-23 17:47:00,87.1,76.5,29.91,ESE,105,4.0,14.0,71,0.00,,,0.00,meteohub,2013-08-23 22:47:00,
2013-08-23 17:52:00,87.3,76.6,29.91,SE,135,4.0,14.0,71,0.00,,,0.00,meteohub,2013-08-23 22:52:00,
2013-08-23 17:57:00,87.3,76.6,29.91,East,95,2.0,11.0,71,0.00,,,0.00,meteohub,2013-08-23 22:57:00,
2013-08-23 18:02:00,87.3,77.2,29.91,ESE,111,2.0,11.0,72,0.00,,,0.00,meteohub,2013-08-23 23:02:00,
2013-08-23 18:07:00,87.1,77.4,29.91,ESE,107,3.0,11.0,73,0.00,,,0.00,meteohub,2013-08-23 23:07:00,
2013-08-23 18:12:00,86.9,77.2,29.91,East,84,7.0,10.0,73,0.00,,,0.00,meteohub,2013-08-23 23:12:00,
2013-08-23 18:17:00,86.5,76.5,29.91,SE,140,3.0,10.0,72,0.00,,,0.00,meteohub,2013-08-23 23:17:00,
2013-08-23 18:22:00,86.4,76.3,29.91,SSE,156,4.0,12.0,72,0.00,,,0.00,meteohub,2013-08-23 23:22:00,
2013-08-23 18:27:00,86.2,76.5,29.91,ESE,103,5.0,13.0,73,0.00,,,0.00,meteohub,2013-08-23 23:27:00,
2013-08-23 18:32:00,85.8,76.1,29.90,SSE,153,5.0,13.0,73,0.00,,,0.00,meteohub,2013-08-23 23:32:00,
2013-08-23 18:37:00,85.6,75.9,29.91,East,89,6.0,13.0,73,0.00,,,0.00,meteohub,2013-08-23 23:37:00,
2013-08-23 18:42:00,85.5,76.3,29.90,SE,125,3.0,11.0,74,0.00,,,0.00,meteohub,2013-08-23 23:42:00,
2013-08-23 18:47:00,85.3,76.5,29.90,ESE,116,4.0,11.0,75,0.00,,,0.00,meteohub,2013-08-23 23:47:00,
2013-08-23 18:52:00,84.9,76.1,29.90,ESE,111,4.0,11.0,75,0.00,,,0.00,meteohub,2013-08-23 23:52:00,
2013-08-23 18:57:00,84.9,76.5,29.90,East,80,6.0,10.0,76,0.00,,,0.00,meteohub,2013-08-23 23:57:00,
2013-08-23 19:02:00,84.7,75.9,29.91,East,95,6.0,11.0,75,0.00,,,0.00,meteohub,2013-08-24 00:02:00,
2013-08-23 19:07:00,84.6,76.1,29.91,ESE,123,2.0,11.0,76,0.00,,,0.00,meteohub,2013-08-24 00:07:00,
2013-08-23 19:12:00,84.4,75.9,29.91,ESE,106,2.0,11.0,76,0.00,,,0.00,meteohub,2013-08-24 00:12:00,
2013-08-23 19:17:00,84.0,76.1,29.91,ESE,107,8.0,8.0,77,0.00,,,0.00,meteohub,2013-08-24 00:17:00,
2013-08-23 19:21:00,83.8,75.9,29.91,SE,135,2.0,9.0,77,0.00,,,0.00,meteohub,2013-08-24 00:21:00,
2013-08-23 19:27:00,83.5,75.0,29.91,SE,136,2.0,9.0,76,0.00,,,0.00,meteohub,2013-08-24 00:27:00,
2013-08-23 19:32:00,83.1,75.2,29.91,ESE,108,3.0,9.0,77,0.00,,,0.00,meteohub,2013-08-24 00:32:00,
2013-08-23 19:37:00,82.9,75.0,29.91,ESE,118,1.0,9.0,77,0.00,,,0.00,meteohub,2013-08-24 00:37:00,
2013-08-23 19:42:00,82.8,75.2,29.92,East,90,1.0,7.0,78,0.00,,,0.00,meteohub,2013-08-24 00:42:00,
2013-08-23 19:47:00,82.6,75.0,29.92,ESE,112,0.0,7.0,78,0.00,,,0.00,meteohub,2013-08-24 00:47:00,
2013-08-23 19:52:00,82.4,75.2,29.92,ESE,110,1.0,7.0,79,0.00,,,0.00,meteohub,2013-08-24 00:52:00,
2013-08-23 19:57:00,82.2,75.0,29.93,ESE,106,1.0,7.0,79,0.00,,,0.00,meteohub,2013-08-24 00:57:00,
2013-08-23 20:02:00,82.0,75.2,29.93,ENE,70,0.0,7.0,80,0.00,,,0.00,meteohub,2013-08-24 01:02:00,
2013-08-23 20:07:00,82.0,75.6,29.94,ENE,70,1.0,7.0,81,0.00,,,0.00,meteohub,2013-08-24 01:07:00,
2013-08-23 20:12:00,81.9,75.7,29.94,East,85,1.0,7.0,82,0.00,,,0.00,meteohub,2013-08-24 01:12:00,
2013-08-23 20:17:00,81.7,75.6,29.94,ESE,115,1.0,5.0,82,0.00,,,0.00,meteohub,2013-08-24 01:17:00,
2013-08-23 20:22:00,81.7,75.9,29.94,East,80,5.0,5.0,83,0.00,,,0.00,meteohub,2013-08-24 01:22:00,
2013-08-23 20:27:00,81.7,75.9,29.94,ESE,104,1.0,6.0,83,0.00,,,0.00,meteohub,2013-08-24 01:27:00,
2013-08-23 20:32:00,81.5,75.9,29.94,SE,134,2.0,6.0,83,0.00,,,0.00,meteohub,2013-08-24 01:32:00,
2013-08-23 20:37:00,81.3,75.7,29.94,ENE,68,2.0,7.0,83,0.00,,,0.00,meteohub,2013-08-24 01:37:00,
2013-08-23 20:42:00,81.1,75.9,29.94,ESE,121,1.0,7.0,84,0.00,,,0.00,meteohub,2013-08-24 01:42:00,
2013-08-23 20:47:00,81.1,75.9,29.94,East,86,2.0,7.0,84,0.00,,,0.00,meteohub,2013-08-24 01:47:00,
2013-08-23 20:52:00,81.1,75.9,29.95,NE,55,2.0,7.0,84,0.00,,,0.00,meteohub,2013-08-24 01:52:00,
2013-08-23 20:57:00,81.0,76.1,29.95,East,81,3.0,6.0,85,0.00,,,0.00,meteohub,2013-08-24 01:57:00,
2013-08-23 21:02:00,81.0,76.1,29.95,East,86,0.0,7.0,85,0.00,,,0.00,meteohub,2013-08-24 02:02:00,
2013-08-23 21:07:00,81.0,76.1,29.95,East,82,5.0,7.0,85,0.00,,,0.00,meteohub,2013-08-24 02:07:00,
2013-08-23 21:12:00,80.8,75.9,29.96,East,96,1.0,7.0,85,0.00,,,0.00,meteohub,2013-08-24 02:12:00,
2013-08-23 21:17:00,80.8,75.9,29.96,East,84,1.0,7.0,85,0.00,,,0.00,meteohub,2013-08-24 02:17:00,
2013-08-23 21:22:00,80.6,75.7,29.96,SE,130,4.0,7.0,85,0.00,,,0.00,meteohub,2013-08-24 02:22:00,
2013-08-23 21:27:00,80.6,75.4,29.96,ESE,103,4.0,8.0,84,0.00,,,0.00,meteohub,2013-08-24 02:27:00,
2013-08-23 21:32:00,80.6,75.4,29.96,East,84,3.0,9.0,84,0.00,,,0.00,meteohub,2013-08-24 02:32:00,
2013-08-23 21:37:00,80.4,75.2,29.96,ESE,104,0.0,9.0,84,0.00,,,0.00,meteohub,2013-08-24 02:37:00,
2013-08-23 21:42:00,80.4,75.2,29.96,East,97,11.0,11.0,84,0.00,,,0.00,meteohub,2013-08-24 02:42:00,
2013-08-23 21:47:00,80.2,75.0,29.96,ENE,65,5.0,11.0,84,0.00,,,0.00,meteohub,2013-08-24 02:47:00,
2013-08-23 21:52:00,80.2,75.0,29.97,ESE,115,4.0,11.0,84,0.00,,,0.00,meteohub,2013-08-24 02:52:00,
2013-08-23 21:57:00,80.2,75.0,29.97,SE,134,2.0,11.0,84,0.00,,,0.00,meteohub,2013-08-24 02:57:00,
2013-08-23 22:02:00,80.1,74.8,29.98,East,90,0.0,9.0,84,0.00,,,0.00,meteohub,2013-08-24 03:02:00,
2013-08-23 22:07:00,80.1,74.8,29.97,East,101,0.0,9.0,84,0.00,,,0.00,meteohub,2013-08-24 03:07:00,
2013-08-23 22:12:00,79.9,75.0,29.97,East,82,1.0,7.0,85,0.00,,,0.00,meteohub,2013-08-24 03:12:00,
2013-08-23 22:17:00,79.7,74.8,29.97,ESE,113,2.0,7.0,85,0.00,,,0.00,meteohub,2013-08-24 03:17:00,
2013-08-23 22:22:00,79.5,74.7,29.97,ESE,113,0.0,7.0,85,0.00,,,0.00,meteohub,2013-08-24 03:22:00,
2013-08-23 22:27:00,79.5,74.7,29.97,East,90,0.0,7.0,85,0.00,,,0.00,meteohub,2013-08-24 03:27:00,
2013-08-23 22:32:00,79.3,74.8,29.98,East,90,1.0,6.0,86,0.00,,,0.00,meteohub,2013-08-24 03:32:00,
2013-08-23 22:37:00,79.3,74.8,29.98,East,90,2.0,6.0,86,0.00,,,0.00,meteohub,2013-08-24 03:37:00,
2013-08-23 22:42:00,79.3,74.8,29.99,ESE,109,2.0,6.0,86,0.00,,,0.00,meteohub,2013-08-24 03:42:00,
2013-08-23 22:47:00,79.2,74.7,29.99,ESE,109,3.0,5.0,86,0.00,,,0.00,meteohub,2013-08-24 03:47:00,
2013-08-23 22:52:00,79.2,74.7,29.99,SE,131,1.0,5.0,86,0.00,,,0.00,meteohub,2013-08-24 03:52:00,
2013-08-23 22:57:00,79.0,74.8,29.99,SE,131,0.0,4.0,87,0.00,,,0.00,meteohub,2013-08-24 03:57:00,
2013-08-23 23:01:00,79.0,74.8,29.99,SE,131,0.0,4.0,87,0.00,,,0.00,meteohub,2013-08-24 04:01:00,
2013-08-23 23:02:00,79.0,74.8,29.99,SE,131,0.0,4.0,87,0.00,,,0.00,meteohub,2013-08-24 04:02:00,
2013-08-23 23:07:00,79.0,74.8,29.99,SE,131,0.0,5.0,87,0.00,,,0.00,meteohub,2013-08-24 04:07:00,
2013-08-23 23:12:00,78.8,74.7,29.99,SE,131,0.0,5.0,87,0.00,,,0.00,meteohub,2013-08-24 04:12:00,
2013-08-23 23:17:00,78.6,74.8,29.99,SE,131,2.0,2.0,88,0.00,,,0.00,meteohub,2013-08-24 04:17:00,
2013-08-23 23:22:00,78.4,74.7,29.99,SE,131,0.0,3.0,88,0.00,,,0.00,meteohub,2013-08-24 04:22:00,
2013-08-23 23:27:00,78.4,74.7,29.99,SE,131,1.0,3.0,88,0.00,,,0.00,meteohub,2013-08-24 04:27:00,
2013-08-23 23:32:00,78.4,74.7,29.99,SE,131,0.0,3.0,88,0.00,,,0.00,meteohub,2013-08-24 04:32:00,
2013-08-23 23:37:00,78.4,74.7,29.99,SE,131,3.0,3.0,88,0.00,,,0.00,meteohub,2013-08-24 04:37:00,
2013-08-23 23:42:00,78.4,74.7,29.99,SE,131,1.0,5.0,88,0.00,,,0.00,meteohub,2013-08-24 04:42:00,
2013-08-23 23:47:00,78.4,74.7,29.99,SE,131,0.0,5.0,88,0.00,,,0.00,meteohub,2013-08-24 04:47:00,
2013-08-23 23:52:00,78.4,74.8,29.99,SE,131,0.0,5.0,89,0.00,,,0.00,meteohub,2013-08-24 04:52:00,
2013-08-23 23:57:00,78.4,74.7,29.99,SE,131,0.0,4.0,88,0.00,,,0.00,meteohub,2013-08-24 04:57:00,